{"data":{"norad_id":64708,"intl_designator":"2025-142N","name":"STARLINK-34563","alt_names":[],"object_type":"PAYLOAD","status":"ACTIVE","operator":null,"country":"US","launch_date":"2025-06-28","launch_site_code":"AFWTR","launch_vehicle":null,"mission":null,"orbit_class":"UNKNOWN","rcs_meters":null,"size_class":null,"mass_kg":null,"dimensions":null,"purposes":["comms"],"wikipedia_slug":null,"has_3d_model":false,"image_url":null,"decayed_at":null,"tle_current":{"epoch":"2026-09-20T12:18:40.071456Z","epoch_age_seconds":126452,"freshness":"FRESH","line1":"1 64708U 25142N   26263.51296379  .00021740  00000+0  75821-3 0  9999","line2":"2 64708  70.0021 180.8356 0002826 282.8230  77.2629 15.29593854 68706","mean_motion":15.29593854,"eccentricity":0.0002826,"inclination_deg":70.0021,"raan_deg":180.8356,"arg_perigee_deg":282.823,"mean_anomaly_deg":77.2629,"bstar":0.00075821,"rev_number":6870,"period_min":94.14263768348,"perigee_km":475.08824083416,"apogee_km":478.96277868468,"semimajor_km":6855.1625097594,"source":"CELESTRAK","updated_at":"2026-09-21T09:00:35.405361Z"}}}